This is the latest recevied weather packets stored in our database for station/object IN3MWE-10. If no packets are shown the sender has not sent any weather packets the latest 10 day(s).
| Time | Temp. | Humidity | Pressure | Rain* | Wind** | Luminosity | Snow |
|---|---|---|---|---|---|---|---|
| 1787838620 | 33.89° C | 46% | 980.4 hPa | - | - | - | - |
| 1787837720 | 31.67° C | 48% | 980.5 hPa | - | - | - | - |
| 1787836819 | 34.44° C | 40% | 980.5 hPa | - | - | - | - |
| 1787835919 | 31.67° C | 45% | 980.6 hPa | - | - | - | - |
| 1787835019 | 35° C | 40% | 980.4 hPa | - | - | - | - |
| 1787834119 | 32.78° C | 38% | 980.6 hPa | - | - | - | - |
| 1787833219 | 33.33° C | 38% | 980.7 hPa | - | - | - | - |
| 1787832319 | 38.33° C | 31% | 980.7 hPa | - | - | - | - |
| 1787831419 | 36.11° C | 33% | 980.8 hPa | - | - | - | - |
| 1787830518 | 32.78° C | 40% | 980.8 hPa | - | - | - | - |
| 1787829618 | 38.33° C | 31% | 981.2 hPa | - | - | - | - |
| 1787828718 | 37.22° C | 35% | 981.3 hPa | - | - | - | - |
| 1787827818 | 36.11° C | 36% | 981.5 hPa | - | - | - | - |
| 1787826918 | 35.56° C | 37% | 981.6 hPa | - | - | - | - |
| 1787826018 | 35° C | 38% | 981.7 hPa | - | - | - | - |
| 1787825117 | 32.78° C | 43% | 981.8 hPa | - | - | - | - |
| 1787824217 | 33.89° C | 42% | 982.2 hPa | - | - | - | - |
| 1787823317 | 33.33° C | 45% | 982.3 hPa | - | - | - | - |
| 1787822417 | 32.22° C | 45% | 982.6 hPa | - | - | - | - |
| 1787821517 | 30° C | 50% | 982.8 hPa | - | - | - | - |
| 1787820617 | 31.67° C | 47% | 982.7 hPa | - | - | - | - |
| 1787819717 | 29.44° C | 53% | 983 hPa | - | - | - | - |
| 1787818817 | 28.33° C | 57% | 983 hPa | - | - | - | - |
| 1787817916 | 28.33° C | 58% | 983.2 hPa | - | - | - | - |
| 1787817016 | 27.22° C | 65% | 983.1 hPa | - | - | - | - |
* Rain since midnight (hover to see other rain measurements)
** Current wind speed in m/s (hover to see current wind gust speed)